Weather History for Rogers, AR

Change the Weather History Date:

Wednesday, October 8, 2014

  Actual Average Record
Temperature  
Mean Temperature 73 °F -  
Max Temperature 82 °F 69 °F 82 °F (2010)
Min Temperature 64 °F 49 °F 26 °F (2000)
Cooling Degree Days 8    
Growing Degree Days 23 (Base 50)    
Moisture  
Dew Point 63 °F    
Average Humidity 80    
Maximum Humidity 90    
Minimum Humidity 49    
Precipitation  
Precipitation 0.04 in - - ()
Sea Level Pressure  
Sea Level Pressure 30.04 in    
Wind  
Wind Speed 7 mph (ESE)    
Max Wind Speed 14 mph    
Max Gust Speed 24 mph    
Visibility 10 miles    
Events Rain , Thunderstorm    
Averages and records for this station are not official NWS values.
T = Trace of Precipitation, MM = Missing Value Source: NWS Daily Summary

Daily Weather History Graph

Daily Weather History Graph

Search for Another Location

Airport:

Trip Planner

Search our weather history database for the weather conditions in past years. The results will help you decide how hot, cold, wet, or windy it might be!

Date:

Astronomy

Oct. 08, 2014 Rise Set
Actual Time 7:17 AM CDT 6:49 PM CDT
Civil Twilight 6:51 AM CDT 7:15 PM CDT
Nautical Twilight 6:21 AM CDT 7:45 PM CDT
Astronomical Twilight 5:51 AM CDT 8:15 PM CDT
Moon 7:06 PM CDT (10/8) 7:24 AM CDT (10/8)
Length of Visible Light 12h 23m
Length of Day
11h 32m
Full, 100% of the Moon is Illuminated
Oct 8
Full
Oct 15
Last Quarter
Oct 23
New
Oct 30
First Quarter
Nov 6
Full

Hourly Weather History & Observations

Time (CDT) Temp. Heat Index Dew Point Humidity Pressure Visibility Wind Dir Wind Speed Gust Speed Precip Events Conditions
12:57 AM 66.0 °F - 60.1 °F 81% 29.99 in 9.0 mi ENE 3.5 mph - N/A   Clear
1:57 AM 66.0 °F - 62.1 °F 87% 30.00 in 10.0 mi ESE 3.5 mph - N/A   Clear
2:57 AM 64.0 °F - 61.0 °F 90% 30.02 in 10.0 mi NE 4.6 mph - N/A   Clear
3:57 AM 66.0 °F - 61.0 °F 84% 30.01 in 10.0 mi East 5.8 mph - N/A   Scattered Clouds
4:57 AM 64.9 °F - 61.0 °F 87% 30.02 in 10.0 mi SE 8.1 mph - N/A   Clear
5:57 AM 64.9 °F - 61.0 °F 87% 30.02 in 10.0 mi ESE 9.2 mph - N/A   Partly Cloudy
6:30 AM 64.4 °F - 60.8 °F 88% 30.06 in 10.0 mi East 8.1 mph - N/A Thunderstorm Scattered Clouds
6:57 AM 66.0 °F - 60.1 °F 81% 30.03 in 9.0 mi East 9.2 mph - N/A Thunderstorm Thunderstorm
7:15 AM 64.4 °F - 60.8 °F 88% 30.08 in 10.0 mi SE 6.9 mph - 0.00 in Rain , Thunderstorm Light Thunderstorms and Rain
7:36 AM 64.4 °F - 60.8 °F 88% 30.09 in 10.0 mi SE 13.8 mph - 0.02 in Rain , Thunderstorm Light Thunderstorms and Rain
7:50 AM 66.2 °F - 60.8 °F 83% 30.09 in 10.0 mi ESE 12.7 mph - 0.02 in   Overcast
7:54 AM 66.2 °F - 60.8 °F 83% 30.10 in 6.0 mi ESE 9.2 mph - 0.03 in Thunderstorm Overcast
7:57 AM 66.0 °F - 61.0 °F 84% 30.07 in 6.0 mi ESE 9.2 mph - 0.03 in Rain , Thunderstorm Light Rain
8:07 AM 64.4 °F - 60.8 °F 88% 30.10 in 10.0 mi East 11.5 mph - 0.01 in Rain , Thunderstorm Light Rain
8:10 AM 64.4 °F - 60.8 °F 88% 30.09 in 10.0 mi East 10.4 mph - 0.01 in   Overcast
8:22 AM 64.4 °F - 60.8 °F 88% 30.10 in 10.0 mi East 12.7 mph - 0.01 in Thunderstorm Mostly Cloudy
8:47 AM 66.2 °F - 60.8 °F 83% 30.09 in 10.0 mi East 11.5 mph 24.2 mph 0.01 in   Mostly Cloudy
8:57 AM 66.0 °F - 60.1 °F 81% 30.07 in 10.0 mi East 10.4 mph - 0.01 in   Mostly Cloudy
9:57 AM 66.9 °F - 60.1 °F 79% 30.08 in 10.0 mi ESE 11.5 mph - N/A   Clear
10:57 AM 71.1 °F - 62.1 °F 73% 30.07 in 10.0 mi SE 11.5 mph - N/A   Clear
11:57 AM 77.0 °F - 64.9 °F 66% 30.07 in 10.0 mi SE 8.1 mph - N/A   Scattered Clouds
12:57 PM 79.0 °F - 66.0 °F 64% 30.05 in 10.0 mi ESE 5.8 mph - N/A   Clear
1:57 PM 81.0 °F 83.0 °F 66.0 °F 60% 30.02 in 10.0 mi SSE 6.9 mph - N/A   Partly Cloudy
2:57 PM 82.9 °F 83.7 °F 62.1 °F 49% 30.00 in 10.0 mi South 10.4 mph - N/A   Clear
3:57 PM 81.0 °F 82.7 °F 64.9 °F 58% 30.00 in 10.0 mi South 13.8 mph - N/A   Clear
4:57 PM 79.0 °F - 66.0 °F 64% 29.99 in 10.0 mi SE 5.8 mph - N/A   Clear
5:57 PM 78.1 °F - 66.9 °F 68% 29.98 in 10.0 mi SE 5.8 mph - N/A   Clear
6:57 PM 75.0 °F - 66.0 °F 73% 29.99 in 10.0 mi SSE 5.8 mph - N/A   Clear
7:57 PM 73.9 °F - 66.0 °F 76% 30.00 in 10.0 mi SSE 8.1 mph - N/A   Partly Cloudy
8:57 PM 71.6 °F - 66.2 °F 83% 30.04 in 10.0 mi SE 6.9 mph - N/A   Mostly Cloudy
8:59 PM 71.1 °F - 66.0 °F 84% 30.01 in 10.0 mi SE 6.9 mph - N/A   Mostly Cloudy
9:22 PM 71.6 °F - 66.2 °F 83% 30.04 in 10.0 mi ESE 6.9 mph - N/A   Scattered Clouds
9:36 PM 71.6 °F - 66.2 °F 83% 30.04 in 10.0 mi ESE 5.8 mph - N/A   Mostly Cloudy
9:50 PM 69.8 °F - 66.2 °F 88% 30.05 in 10.0 mi ESE 5.8 mph - N/A   Scattered Clouds
9:57 PM 70.0 °F - 66.0 °F 87% 30.02 in 10.0 mi ESE 6.9 mph - N/A   Scattered Clouds
10:04 PM 69.8 °F - 66.2 °F 88% 30.05 in 10.0 mi ESE 6.9 mph - N/A   Mostly Cloudy
10:57 PM 70.0 °F - 64.9 °F 84% 30.01 in 10.0 mi SE 6.9 mph - N/A   Mostly Cloudy
11:15 PM 69.8 °F - 64.4 °F 83% 30.05 in 10.0 mi ESE 6.9 mph - N/A   Scattered Clouds
11:57 PM 68.0 °F - 64.9 °F 90% 30.00 in 10.0 mi ESE 8.1 mph - N/A   Clear